Location: Pensacola
(30.4142°N, 87.2155°W)
Time: 18:54:18
(UTC-05:00)

RS-44 - Visible Passes

Search period start: 06 June 2023 00:00
Search period end: 16 June 2023 00:00
Orbit: 1175 x 1510 km, 82.5° (Epoch: 06 June)

Date Brightness Start Highest point End Pass type
(mag) Time Alt. Az. Time Alt. Az. Time Alt. Az.
09 Jun ? 20:26:23 10° NW 20:29:59 14° W 20:33:30 10° WSW visible
10 Jun ? 05:15:25 10° E 05:16:10 10° ENE 05:16:55 10° ENE visible
14 Jun ? 04:54:38 10° E 04:57:48 12° E 05:00:57 10° ENE visible
15 Jun ? 05:14:39 10° SE 05:21:05 23° E 05:27:23 10° NE visible
